ONEWEB-0012 1 44057C 19010A 21110.68680556 -.00000203 00000-0 -49148-3 0 1101 2 44057 87.9120 272.9117 0001866 96.5074 324.2116 13.21813722 10 ONEWEB-0010 1 44058C 19010B 21110.24305556 .00002443 00000-0 59236-2 0 1102 2 44058 87.9121 273.0087 0001546 95.5011 7.1547 13.21811242 15 ONEWEB-0008 1 44059C 19010C 21110.83958333 .00004021 00000-0 97496-2 0 1109 2 44059 87.9127 272.9000 0001827 95.2041 339.7037 13.21811357 12 ONEWEB-0007 1 44060C 19010D 21110.92083333 .00002681 00000-0 65000-2 0 1106 2 44060 87.9120 272.8670 0001869 103.5546 335.1637 13.21809335 17 ONEWEB-0006 1 44061C 19010E 21110.84583333 .00004035 00000-0 97836-2 0 1100 2 44061 87.9124 272.8977 0001814 95.9735 338.6337 13.21810521 10 ONEWEB-0011 1 44062C 19010F 21110.77222222 .00002905 00000-0 70435-2 0 1100 2 44062 87.9128 272.9259 0002110 101.3786 335.8732 13.21805501 17 ONEWEB-0013 1 45131C 20008A 21110.39722222 -.00000530 00000-0 -15424-2 0 1101 2 45131 87.9151 66.3818 0002542 77.0836 11.2240 13.09310275 15 ONEWEB-0017 1 45132C 20008B 21110.73333333 .00002238 00000-0 64188-2 0 1107 2 45132 87.8879 50.6858 0001958 93.0667 336.8198 13.10378303 18 ONEWEB-0020 1 45133C 20008C 21110.32013889 .00001087 00000-0 31177-2 0 1107 2 45133 87.8859 50.7555 0002493 109.3224 319.4186 13.10365423 10 ONEWEB-0021 1 45134C 20008D 21110.87152778 -.00002813 00000-0 -80685-2 0 1107 2 45134 87.8769 50.6344 0002119 75.2321 359.6986 13.10371359 19 ONEWEB-0022 1 45135C 20008E 21110.89652778 -.00002545 00000-0 -72983-2 0 1109 2 45135 87.8883 50.6359 0001864 97.8642 337.3173 13.10380429 14 ONEWEB-0023 1 45136C 20008F 21110.50555556 -.00002547 00000-0 -73041-2 0 1102 2 45136 87.8796 50.7452 0002841 74.4755 16.2626 13.10377271 12 ONEWEB-0024 1 45137C 20008G 21110.39312500 -.00001072 00000-0 -30762-2 0 1105 2 45137 87.8804 50.7693 0002283 75.6048 344.5839 13.10367631 10 ONEWEB-0025 1 45138C 20008H 21110.87291667 -.00002875 00000-0 -82472-2 0 1106 2 45138 87.8858 50.7180 0002231 80.4131 353.7509 13.10374855 13 ONEWEB-0026 1 45139C 20008J 21110.63055556 .00003300 00000-0 93741-2 0 1109 2 45139 87.8894 35.6033 0002242 101.4743 322.0344 13.11036247 15 ONEWEB-0028 1 45140C 20008K 21110.70972222 .00002243 00000-0 64350-2 0 1106 2 45140 87.8860 50.7009 0002173 76.2296 352.4826 13.10360641 15 ONEWEB-0032 1 45141C 20008L 21110.81159722 .00000110 00000-0 31537-3 0 1104 2 45141 87.8854 50.7374 0001988 76.5843 354.9949 13.10376738 15 ONEWEB-0033 1 45142C 20008M 21110.78541667 .00001015 00000-0 29109-2 0 1100 2 45142 87.8832 50.6842 0002011 79.6049 353.3682 13.10368162 10 ONEWEB-0035 1 45143C 20008N 21110.66319444 .00002549 00000-0 73110-2 0 1108 2 45143 87.8881 50.7103 0002134 82.0345 340.3551 13.10368143 19 ONEWEB-0036 1 45144C 20008P 21110.88541667 -.00003008 00000-0 -86267-2 0 1107 2 45144 87.8876 50.6292 0002362 80.0548 354.1593 13.10382482 19 ONEWEB-0038 1 45145C 20008Q 21110.78333333 .00000525 00000-0 14932-2 0 1105 2 45145 87.8938 35.4283 0001831 63.2599 10.0505 13.10950482 11 ONEWEB-0039 1 45146C 20008R 21110.25694444 .00001918 00000-0 55011-2 0 1101 2 45146 87.8862 50.7932 0002131 60.0206 19.4131 13.10368141 16 ONEWEB-0040 1 45147C 20008S 21110.86597222 -.00001933 00000-0 -55457-2 0 1108 2 45147 87.8856 50.7176 0002140 74.2394 33.2412 13.10369306 15 ONEWEB-0043 1 45149C 20008U 21110.78402778 .00001168 00000-0 33503-2 0 1108 2 45149 87.8858 50.6832 0002565 70.5526 3.2068 13.10369734 13 ONEWEB-0044 1 45150C 20008V 21110.73680556 .00002417 00000-0 69326-2 0 1107 2 45150 87.8878 50.7035 0002187 67.4976 4.0764 13.10377629 11 ONEWEB-0045 1 45151C 20008W 21110.79166667 .00000516 00000-0 14646-2 0 1109 2 45151 87.8911 35.5676 0001550 75.1021 1.0576 13.11130765 19 ONEWEB-0047 1 45152C 20008X 21110.27159722 .00001830 00000-0 52495-2 0 1101 2 45152 87.8876 50.7891 0002130 77.8531 357.1952 13.10377419 19 ONEWEB-0048 1 45153C 20008Y 21110.72361111 .00001884 00000-0 54043-2 0 1109 2 45153 87.8873 50.6898 0002328 77.4610 350.6841 13.10372397 11 ONEWEB-0049 1 45154C 20008Z 21110.65486111 .00001393 00000-0 39966-2 0 1102 2 45154 87.8866 50.7098 0002557 81.5252 15.1012 13.10374904 18 ONEWEB-0051 1 45155C 20008AA 21110.86458333 -.00002241 00000-0 -63658-2 0 1101 2 45155 87.8889 35.5577 0002288 94.9781 342.9993 13.11045924 10 ONEWEB-0052 1 45156C 20008AB 21110.65125000 .00001254 00000-0 35969-2 0 1106 2 45156 87.8861 50.7064 0003357 78.3192 16.0552 13.10372505 18 ONEWEB-0053 1 45157C 20008AC 21110.86638889 -.00001844 00000-0 -52895-2 0 1108 2 45157 87.8859 50.6751 0002191 70.5211 46.2614 13.10368997 13 ONEWEB-0054 1 45158C 20008AD 21110.74027778 .00002619 00000-0 75130-2 0 1101 2 45158 87.8879 50.7059 0001848 77.9827 355.3111 13.10371509 19 ONEWEB-0056 1 45159C 20008AE 21110.72083333 .00001872 00000-0 53685-2 0 1100 2 45159 87.8867 50.7032 0002242 79.0655 350.7168 13.10367882 19 ONEWEB-0057 1 45160C 20008AF 21110.65486111 .00001449 00000-0 41569-2 0 1103 2 45160 87.8876 50.6849 0002218 70.3015 19.0227 13.10367105 12 ONEWEB-0058 1 45161C 20008AG 21110.64375000 .00001187 00000-0 34059-2 0 1102 2 45161 87.8868 50.7059 0001882 71.0946 24.6091 13.10368817 17 ONEWEB-0059 1 45162C 20008AH 21110.40416667 -.00002105 00000-0 -60390-2 0 1102 2 45162 87.8862 50.7618 0001919 73.3593 347.4382 13.10372345 17 ONEWEB-0062 1 45163C 20008AJ 21110.73819444 .00002534 00000-0 72674-2 0 1101 2 45163 87.8880 50.6908 0002404 79.1285 351.5666 13.10375731 14 ONEWEB-0065 1 45164C 20008AK 21110.71597222 .00001957 00000-0 56138-2 0 1102 2 45164 87.8779 50.6820 0002083 78.9741 349.9380 13.10368190 17 ONEWEB-0066 1 45424C 20020A 21110.84722222 -.00002985 00000-0 -84868-2 0 1104 2 45424 87.8950 35.4932 0000987 57.2503 21.3834 13.10990631 15 ONEWEB-0067 1 45425C 20020B 21110.80694444 -.00000533 00000-0 -14953-2 0 1100 2 45425 87.8932 35.5149 0001883 69.7218 3.9702 13.11907890 10 ONEWEB-0080 1 45426C 20020C 21110.75000000 .00000412 00000-0 11614-2 0 1109 2 45426 87.8938 35.5046 0002103 89.7350 340.9079 13.11542159 12 ONEWEB-0090 1 45427C 20020D 21110.91666667 -.00004473 00000-0 -12678-1 0 1108 2 45427 87.8953 35.4892 0001829 76.9527 2.2452 13.11199026 10 ONEWEB-0061 1 45428C 20020E 21110.88263889 -.00002750 00000-0 -77097-2 0 1107 2 45428 87.8937 35.4677 0002067 80.7434 357.9758 13.11939642 14 ONEWEB-0081 1 45429C 20020F 21110.85208333 -.00002743 00000-0 -78117-2 0 1104 2 45429 87.8964 35.4306 0001742 71.8210 5.9342 13.10875751 14 ONEWEB-0069 1 45430C 20020G 21110.84166667 -.00003110 00000-0 -88252-2 0 1108 2 45430 87.8948 35.4991 0001827 77.4242 359.3698 13.11121282 13 ONEWEB-0031 1 45431C 20020H 21110.66597222 .00002312 00000-0 65062-2 0 1109 2 45431 87.8931 35.5336 0002185 76.2238 349.7018 13.11676082 12 ONEWEB-0027 1 45432C 20020J 21110.83194444 -.00002379 00000-0 -51746-2 0 1107 2 45432 87.9632 20.3318 0026136 349.8602 93.0513 13.28963820 16 ONEWEB-0064 1 45433C 20020K 21110.51062500 -.00001206 00000-0 -33920-2 0 1102 2 45433 87.8935 35.5720 0002036 71.8673 349.1928 13.11738609 12 ONEWEB-0018 1 45434C 20020L 21110.84375000 -.00003089 00000-0 -87689-2 0 1103 2 45434 87.8948 35.4836 0001977 78.1704 0.3072 13.11083524 17 ONEWEB-0083 1 45435C 20020M 21110.83472222 -.00003054 00000-0 -86398-2 0 1105 2 45435 87.8942 35.4916 0001979 74.6947 2.1810 13.11319970 10 ONEWEB-0095 1 45436C 20020N 21110.66736111 .00002213 00000-0 62309-2 0 1107 2 45436 87.8935 35.5274 0001972 76.0933 348.7739 13.11656953 19 ONEWEB-0092 1 45437C 20020P 21110.88125000 -.00002652 00000-0 -74363-2 0 1103 2 45437 87.8948 35.4259 0002691 87.9320 351.4398 13.11924617 13 ONEWEB-0085 1 45438C 20020Q 21110.67430556 .00001919 00000-0 54137-2 0 1106 2 45438 87.8940 35.5400 0001920 76.7083 348.7910 13.11497259 17 ONEWEB-0096 1 45439C 20020R 21110.37500000 -.00002576 00000-0 -72930-2 0 1109 2 45439 87.8944 35.5879 0002160 86.5878 334.5729 13.11278758 12 ONEWEB-0037 1 45440C 20020S 21110.66944444 .00002118 00000-0 59651-2 0 1102 2 45440 87.8933 35.5426 0002778 84.8136 341.8389 13.11617063 12 ONEWEB-0042 1 45441C 20020T 21110.57819444 .00001581 00000-0 44347-2 0 1103 2 45441 87.8933 35.5504 0002016 67.7533 351.6880 13.11911452 10 ONEWEB-0098 1 45442C 20020U 21110.67361111 .00002007 00000-0 56563-2 0 1105 2 45442 87.8934 35.5357 0001743 72.2571 5.9525 13.11573642 17 ONEWEB-0055 1 45443C 20020V 21110.65902778 .00002764 00000-0 77672-2 0 1108 2 45443 87.8942 35.4778 0001831 77.1334 346.9198 13.11779361 12 ONEWEB-0093 1 45444C 20020W 21110.77777778 .00000359 00000-0 10208-2 0 1102 2 45444 87.8951 35.5104 0002181 79.2942 353.5429 13.10890734 12 ONEWEB-0029 1 45445C 20020X 21110.88888889 -.00003268 00000-0 -91675-2 0 1102 2 45445 87.8935 35.4697 0001910 79.7858 358.6830 13.11908406 10 ONEWEB-0068 1 45446C 20020Y 21110.84861111 -.00002909 00000-0 -82723-2 0 1103 2 45446 87.8950 35.4961 0001707 65.1413 12.1385 13.10956158 15 ONEWEB-0046 1 45447C 20020Z 21110.69027778 .00002188 00000-0 62152-2 0 1101 2 45447 87.8951 35.5317 0002022 77.3860 349.1345 13.11037518 15 ONEWEB-0063 1 45448C 20020AA 21110.80902778 -.00000712 00000-0 -19956-2 0 1104 2 45448 87.8929 35.5216 0002569 64.2234 12.3603 13.11930850 12 ONEWEB-0019 1 45449C 20020AB 21110.38895833 -.00001979 00000-0 -56329-2 0 1102 2 45449 87.8956 35.5634 0001840 82.7752 338.5679 13.10913253 11 ONEWEB-0094 1 45450C 20020AC 21110.61180556 .00001767 00000-0 38803-2 0 1109 2 45450 87.9643 20.3287 0021526 355.3746 69.1261 13.28352202 12 ONEWEB-0087 1 45451C 20020AD 21110.81527778 -.00001461 00000-0 -41039-2 0 1101 2 45451 87.8939 35.5062 0001913 80.6475 354.3788 13.11825110 12 ONEWEB-0082 1 45452C 20020AE 21110.81673611 -.00001660 00000-0 -46633-2 0 1106 2 45452 87.8932 35.4718 0001795 70.1509 3.7741 13.11787361 12 ONEWEB-0050 1 45453C 20020AF 21110.67222222 .00003026 00000-0 27900-3 0 1102 2 45453 87.5490 13.7185 0024031 312.2723 142.8590 14.94574689 18 ONEWEB-0034 1 45454C 20020AG 21110.67638889 .00001869 00000-0 52820-2 0 1104 2 45454 87.8938 35.5241 0002055 74.6364 352.0078 13.11391738 12 ONEWEB-0060 1 45455C 20020AH 21110.68347222 .00001894 00000-0 53659-2 0 1103 2 45455 87.8947 35.5163 0001948 77.5472 349.6084 13.11230189 19 ONEWEB-0086 1 45456C 20020AJ 21110.85277778 -.00002728 00000-0 -77663-2 0 1101 2 45456 87.8951 35.4801 0001851 76.8100 1.6130 13.10898970 10 ONEWEB-0088 1 45457C 20020AK 21110.67784722 .00001856 00000-0 52475-2 0 1107 2 45457 87.8937 35.5484 0002052 74.8484 350.0600 13.11354447 10 ONEWEB-0102 1 47258C 20100A 21110.83819444 -.00195312 00000-0 -46109-0 0 1103 2 47258 87.9377 5.1800 0001356 105.7691 334.5574 13.23807375 18 ONEWEB-0109 1 47259C 20100B 21110.79666667 -.00006208 00000-0 -17071-1 0 1108 2 47259 87.8944 5.0599 0002210 105.7970 311.6623 13.13277743 12 ONEWEB-0110 1 47260C 20100C 21110.69375000 -.00113010 00000-0 -26723-0 0 1100 2 47260 87.9392 5.1075 0001518 88.8282 346.5059 13.23614897 15 ONEWEB-0111 1 47261C 20100D 21110.27847222 -.00001813 00000-0 -42468-2 0 1108 2 47261 87.9405 5.1864 0001380 90.7776 337.6850 13.24153474 14 ONEWEB-0114 1 47262C 20100E 21110.88750000 -.00003167 00000-0 -88219-2 0 1101 2 47262 87.8909 5.0470 0001865 98.7047 342.2085 13.12395840 16 ONEWEB-0117 1 47263C 20100F 21110.87986111 -.00002778 00000-0 -76776-2 0 1107 2 47263 87.8936 5.1220 0001369 99.1489 339.2588 13.12931876 14 ONEWEB-0118 1 47264C 20100G 21110.90944444 -.00895008 00000-0 -24558+1 0 1100 2 47264 87.9007 5.0945 0001660 93.8686 346.9605 13.14316732 17 ONEWEB-0119 1 47265C 20100H 21110.61458333 -.01369644 00000-0 -34112+1 0 1106 2 47265 87.9258 5.2190 0002248 120.5284 177.3458 13.21385580 12 ONEWEB-0120 1 47266C 20100J 21110.31944444 -.00001425 00000-0 -33712-2 0 1103 2 47266 87.9381 5.1239 0001755 109.9058 313.9912 13.23489361 12 ONEWEB-0121 1 47267C 20100K 21110.66111111 .00002486 00000-0 54514-2 0 1108 2 47267 87.9606 4.9944 0010825 246.1361 317.7355 13.28528272 15 ONEWEB-0122 1 47268C 20100L 21110.80555556 -.01357736 00000-0 -33764+1 0 1106 2 47268 87.9230 5.1067 0001343 91.0491 349.3515 13.21477618 13 ONEWEB-0123 1 47269C 20100M 21110.89583333 -.00003265 00000-0 -77593-2 0 1104 2 47269 87.9416 5.1201 0001902 103.4968 338.6065 13.23168688 15 ONEWEB-0124 1 47270C 20100N 21110.62777778 .00003009 00000-0 71316-2 0 1106 2 47270 87.9375 5.1657 0001807 96.6162 332.3728 13.23341928 16 ONEWEB-0125 1 47271C 20100P 21110.88194444 -.00002531 00000-0 -60237-2 0 1109 2 47271 87.9339 5.0725 0001581 118.5670 327.3051 13.23070976 14 ONEWEB-0126 1 47272C 20100Q 21110.54236111 .00002299 00000-0 54833-2 0 1105 2 47272 87.9355 5.2380 0001826 96.4999 350.6512 13.22918476 18 ONEWEB-0127 1 47273C 20100R 21110.72291667 -.00898849 00000-0 -21438+1 0 1102 2 47273 87.9341 5.1389 0001853 95.8335 322.5470 13.23829235 15 ONEWEB-0128 1 47274C 20100S 21110.74583333 -.00878653 00000-0 -20657+1 0 1102 2 47274 87.9417 5.1088 0001166 106.5206 331.3964 13.24776010 19 ONEWEB-0129 1 47275C 20100T 21110.31840278 -.01345014 00000-0 -30855+1 0 1102 2 47275 87.9468 5.0741 0002045 89.0819 179.6918 13.26887252 18 ONEWEB-0130 1 47276C 20100U 21110.77298611 -.00002633 00000-0 -70592-2 0 1101 2 47276 87.9045 5.0858 0001755 99.7031 337.0672 13.15007753 15 ONEWEB-0131 1 47277C 20100V 21110.39513889 -.01360921 00000-0 -34076+1 0 1100 2 47277 87.9212 5.1058 0001014 82.1857 8.1877 13.21017579 12 ONEWEB-0132 1 47278C 20100W 21110.74166667 -.01342102 00000-0 -32890+1 0 1101 2 47278 87.9299 5.1968 0002204 88.8004 16.9231 13.22449216 16 ONEWEB-0133 1 47279C 20100X 21110.79791667 -.00220956 00000-0 -52199-0 0 1106 2 47279 87.9406 5.0340 0001615 84.7787 354.2482 13.23786704 11 ONEWEB-0134 1 47280C 20100Y 21110.86736111 -.00349471 00000-0 -76592-0 0 1106 2 47280 87.9578 5.1077 0002544 117.5418 323.1499 13.28926751 15 ONEWEB-0135 1 47281C 20100Z 21110.75763889 -.01332507 00000-0 -33870+1 0 1102 2 47281 87.9185 5.1110 0001657 84.8347 354.6540 13.19969264 11 ONEWEB-0136 1 47282C 20100AA 21110.79166667 -.00002416 00000-0 -57144-2 0 1102 2 47282 87.9400 5.0244 0001381 91.8746 325.0208 13.23483042 17 ONEWEB-0137 1 47283C 20100AB 21110.64861111 .00002395 00000-0 58319-2 0 1102 2 47283 87.9300 5.2185 0001696 102.6953 329.5064 13.21539593 13 ONEWEB-0138 1 47284C 20100AC 21110.63125000 -.00153473 00000-0 -36376-0 0 1105 2 47284 87.9469 5.1907 0001720 132.1434 251.4914 13.23499840 10 ONEWEB-0139 1 47285C 20100AD 21110.77847222 -.00002614 00000-0 -62099-2 0 1101 2 47285 87.9369 5.1262 0001214 105.7412 331.3232 13.23200524 14 ONEWEB-0140 1 47286C 20100AE 21110.78750000 -.01366817 00000-0 -33721+1 0 1107 2 47286 87.9273 5.1281 0001600 95.8167 341.7685 13.22022050 17 ONEWEB-0141 1 47287C 20100AF 21110.61180556 .00002402 00000-0 66119-2 0 1106 2 47287 87.8997 5.2038 0001678 100.3879 327.8910 13.13190586 14 ONEWEB-0142 1 47288C 20100AG 21110.87361111 -.01367590 00000-0 -35233+1 0 1109 2 47288 87.9159 5.1857 0001789 76.3573 3.3122 13.19092176 13 ONEWEB-0143 1 47289C 20100AH 21110.84861111 -.00003514 00000-0 -77833-2 0 1108 2 47289 87.9643 5.0199 0002027 91.9056 326.1604 13.27880296 13 ONEWEB-0144 1 47290C 20100AJ 21110.71944444 -.00000205 00000-0 -56720-3 0 1104 2 47290 87.8938 5.0618 0002060 97.0132 337.5591 13.12979045 12 ONEWEB-0145 1 47291C 20100AK 21110.87083333 -.00002384 00000-0 -56611-2 0 1101 2 47291 87.9373 5.0925 0001948 93.9720 358.3046 13.23224067 15 ONEWEB-0146 1 47292C 20100AL 21110.74583333 -.01210871 00000-0 -28274+1 0 1108 2 47292 87.9425 5.1693 0001715 93.3852 345.1081 13.25566291 12 ONEWEB-0147 1 47293C 20100AM 21110.20972222 -.01349990 00000-0 -33915+1 0 1102 2 47293 87.9222 5.2405 0006231 232.4443 220.6304 13.20774806 13 ONEWEB-0115 1 48042C 21025A 21110.61180556 -.01208260 00000-0 -33880-1 0 1104 2 48042 87.4047 340.7235 0007282 162.9191 229.1904 15.37875413 14 ONEWEB-0152 1 48043C 21025B 21110.77361111 -.01233969 00000-0 -41237-1 0 1109 2 48043 87.4061 340.6855 0010113 150.2277 272.8166 15.32308062 11 ONEWEB-0153 1 48044C 21025C 21110.79722222 -.01226062 00000-0 -45801-1 0 1103 2 48044 87.4085 340.6997 0009787 174.5225 248.7749 15.28664828 11 ONEWEB-0154 1 48045C 21025D 21110.82013889 -.01246510 00000-0 -51593-1 0 1105 2 48045 87.4020 340.7026 0007555 158.3021 267.4476 15.25283802 11 ONEWEB-0116 1 48046C 21025E 21110.77631944 -.01209839 00000-0 -34914-1 0 1109 2 48046 87.4037 340.6601 0007200 158.7009 50.7648 15.36978323 10 ONEWEB-0150 1 48047C 21025F 21110.46250000 -.01171227 00000-0 -36195-1 0 1108 2 48047 87.4053 340.7858 0009051 144.6303 54.7719 15.34760591 18 ONEWEB-0107 1 48048C 21025G 21110.48958333 -.01224429 00000-0 -44067-1 0 1105 2 48048 87.4045 340.7940 0010435 170.8523 15.1048 15.29882672 10 ONEWEB-0101 1 48049C 21025H 21110.85138889 -.01244956 00000-0 -54049-1 0 1101 2 48049 87.3983 340.7038 0009054 148.7397 25.7540 15.23652379 14 ONEWEB-0113 1 48050C 21025J 21110.90548611 -.01228154 00000-0 -40664-1 0 1107 2 48050 87.4074 340.6342 0009785 146.2313 305.3596 15.32604515 14 ONEWEB-0112 1 48051C 21025K 21110.29166667 -.01215549 00000-0 -34817-1 0 1104 2 48051 87.4039 340.8399 0006557 157.5437 234.5578 15.37223765 18 ONEWEB-0156 1 48052C 21025L 21110.92743056 -.01213390 00000-0 -44436-1 0 1108 2 48052 87.4077 340.6458 0010337 168.9154 284.0067 15.29301585 19 ONEWEB-0161 1 48053C 21025M 21110.84375000 -.01243813 00000-0 -52374-1 0 1103 2 48053 87.3989 340.7063 0008074 155.5179 19.7844 15.24696715 11 ONEWEB-0158 1 48054C 21025N 21110.60833333 -.01199723 00000-0 -32958-1 0 1102 2 48054 87.4029 340.7172 0007550 163.6093 227.6646 15.38502160 17 ONEWEB-0157 1 48055C 21025P 21110.90277778 -.01221320 00000-0 -39732-1 0 1107 2 48055 87.4066 340.6349 0009363 144.7669 308.1691 15.33168191 19 ONEWEB-0162 1 48056C 21025Q 21110.84722222 -.01225335 00000-0 -52311-1 0 1108 2 48056 87.4002 340.6940 0008225 151.5449 22.0841 15.24210237 13 ONEWEB-0155 1 48057C 21025R 21110.80000000 -.01204731 00000-0 -31674-1 0 1104 2 48057 87.4034 340.6480 0010380 162.7563 263.0276 15.39835989 16 ONEWEB-0149 1 48058C 21025S 21110.65972222 -.01229299 00000-0 -46460-1 0 1107 2 48058 87.4052 340.7444 0008610 175.3486 186.1033 15.28294137 13 ONEWEB-0148 1 48059C 21025T 21110.78125000 -.01230952 00000-0 -42520-1 0 1107 2 48059 87.4034 340.6771 0010818 158.8346 266.7325 15.31225730 16 ONEWEB-0160 1 48060C 21025U 21110.67083333 -.01223075 00000-0 -48427-1 0 1109 2 48060 87.4027 340.7526 0007011 161.3390 199.2771 15.26752407 13 ONEWEB-0163 1 48061C 21025V 21110.66736111 -.01191143 00000-0 -30820-1 0 1106 2 48061 87.4005 340.6803 0010877 161.4743 262.9586 15.40307713 18 ONEWEB-0159 1 48062C 21025W 21110.24166667 -.01228728 00000-0 -36804-1 0 1102 2 48062 87.4047 340.8660 0007915 144.9589 290.9078 15.35820114 17 ONEWEB-0164 1 48063C 21025X 21110.78409722 -.01225843 00000-0 -42890-1 0 1101 2 48063 87.4095 340.6925 0010944 160.7712 266.2959 15.30801348 10 ONEWEB-0167 1 48064C 21025Y 21110.80694444 -.01228461 00000-0 -47547-1 0 1105 2 48064 87.4015 340.6957 0008155 175.3124 249.8911 15.27506708 11 ONEWEB-0166 1 48065C 21025Z 21110.79513889 -.01188696 00000-0 -30543-1 0 1100 2 48065 87.4025 340.6418 0011319 160.0925 263.7294 15.40513182 19 ONEWEB-0151 1 48066C 21025AA 21110.78055556 -.01219824 00000-0 -36819-1 0 1102 2 48066 87.4076 340.6748 0007436 148.9946 54.8946 15.35572147 18 ONEWEB-0170 1 48067C 21025AB 21110.64652778 -.01231338 00000-0 -43334-1 0 1101 2 48067 87.4053 340.7349 0010471 165.9543 201.8027 15.30622095 14 ONEWEB-0168 1 48068C 21025AC 21110.81458333 -.01233082 00000-0 -49833-1 0 1100 2 48068 87.4017 340.6972 0007738 166.9119 259.1452 15.26071304 12 ONEWEB-0173 1 48069C 21025AD 21110.77777778 -.01184635 00000-0 -34667-1 0 1101 2 48069 87.4047 340.6618 0007158 152.2810 53.3223 15.36514878 14 ONEWEB-0171 1 48070C 21025AE 21110.92527778 -.01190653 00000-0 -32693-1 0 1107 2 48070 87.4044 340.5970 0010027 163.8483 221.6278 15.38484213 17 ONEWEB-0172 1 48071C 21025AF 21110.56590278 -.01212364 00000-0 -36609-1 0 1108 2 48071 87.4031 340.7356 0007647 146.2130 295.0379 15.35549955 11 ONEWEB-0174 1 48072C 21025AG 21110.65604167 -.00579323 00000-0 -13338-1 0 1106 2 48072 87.3953 340.6793 0012514 141.4889 306.5263 15.43198486 13 ONEWEB-0175 1 48073C 21025AH 21110.80972222 -.01231908 00000-0 -48753-1 0 1108 2 48073 87.4095 340.7099 0007920 171.5291 251.5611 15.26770714 15 ONEWEB-0177 1 48074C 21025AJ 21110.65763889 -.01174336 00000-0 -27908-1 0 1109 2 48074 87.3955 340.6718 0012389 143.9763 302.7817 15.42855443 17 ONEWEB-0178 1 48075C 21025AK 21110.27152778 -.01187978 00000-0 -28552-1 0 1109 2 48075 87.3965 340.8195 0012551 149.2675 287.0553 15.42527345 11 ONEWEB-0108 1 48076C 21025AL 21110.71805556 -.01189190 00000-0 -28962-1 0 1101 2 48076 87.4011 340.6664 0012369 146.6045 263.3861 15.42130898 15 ONEWEB-0169 1 48077C 21025AM 21110.91388889 -.01212806 00000-0 -41460-1 0 1108 2 48077 87.4116 340.6389 0010804 155.4525 298.0287 15.31544608 12